Baltimore Martin, MD

10:58 AM EDT on April 23, 2017 (GMT -0400)
Martin State

Weather History for KMTN - November, 2013

Change the Weather History Date:

Monday, November 18, 2013

  Actual Average Record
Temperature  
Mean Temperature 60 °F -  
Max Temperature 69 °F 51 °F 69 °F (2013)
Min Temperature 51 °F 36 °F 24 °F (1997)
Degree Days  
Heating Degree Days 5    
Growing Degree Days 10 (Base 50)    
Moisture  
Dew Point 41 °F    
Average Humidity 59    
Maximum Humidity 100    
Minimum Humidity 22    
Precipitation  
Precipitation 0.02 in - - ()
Sea Level Pressure  
Sea Level Pressure 29.79 in    
Wind  
Wind Speed 11 mph (SW)    
Max Wind Speed 21 mph    
Max Gust Speed 31 mph    
Visibility 9 miles    
Events Rain    
Averages and records for this station are not official NWS values.
T = Trace of Precipitation, MM = Missing Value Source: NWS Daily Summary

Daily Weather History Graph

Daily Weather History Graph

Search for Another Location

Airport or City:

Trip Planner

Search our weather history database for the weather conditions in past years. The results will help you decide how hot, cold, wet, or windy it might be!

Date:

Astronomy

Nov. 18, 2013 Rise Set
Actual Time 6:52 AM EST 4:48 PM EST
Civil Twilight 6:23 AM EST 5:17 PM EST
Nautical Twilight 5:51 AM EST 5:50 PM EST
Astronomical Twilight 5:19 AM EST 6:21 PM EST
Moon 5:49 PM EST (11/18) 7:39 AM EST (11/18)
Length of Visible Light 10h 53m
Length of Day
9h 55m
Full, 99% of the Moon is Illuminated
Nov 18
Full
Nov 25
Last Quarter
Dec 2
New
Dec 9
First Quarter
Dec 17
Full

Hourly Weather History & Observations

Time (EST) Temp. Dew Point Humidity Pressure Visibility Wind Dir Wind Speed Gust Speed Precip Events Conditions
12:00 AM 57.2 °F 57.2 °F 100% 29.79 in 5.0 mi SSE 12.7 mph - N/A Rain Light Rain
12:21 AM 57.2 °F 57.2 °F 100% 29.76 in 7.0 mi SSE 13.8 mph - N/A   Overcast
12:42 AM 57.2 °F 57.2 °F 100% 29.75 in 7.0 mi SSE 10.4 mph - N/A   Overcast
1:00 AM 57.2 °F 57.2 °F 100% 29.74 in 5.0 mi SE 10.4 mph - N/A   Mostly Cloudy
1:42 AM 55.4 °F 55.4 °F 100% 29.71 in 5.0 mi SE 10.4 mph - N/A   Mostly Cloudy
2:00 AM 57.2 °F 57.2 °F 100% 29.71 in 7.0 mi SE 9.2 mph - N/A   Mostly Cloudy
2:21 AM 59.0 °F 59.0 °F 100% 29.71 in 7.0 mi SSE 8.1 mph - N/A Rain Rain
2:42 AM 57.2 °F 57.2 °F 100% 29.72 in 5.0 mi SW 8.1 mph - 0.02 in Rain Rain
3:00 AM 59.0 °F 55.4 °F 88% 29.74 in 7.0 mi West 17.3 mph 31.1 mph N/A Rain Light Rain
5:21 AM 59.0 °F 50.0 °F 72% 29.74 in 10.0 mi South 3.5 mph - N/A   Scattered Clouds
5:30 AM 57.2 °F 50.0 °F 77% 29.74 in 10.0 mi Calm Calm - N/A   Scattered Clouds
5:50 AM 57.2 °F 51.8 °F 82% 29.74 in 10.0 mi SSW 8.1 mph - N/A   Mostly Cloudy
6:45 AM 57.2 °F 50.0 °F 77% 29.76 in 10.0 mi South 6.9 mph - N/A   Mostly Cloudy
7:45 AM 57.2 °F 50.0 °F 77% 29.78 in 10.0 mi South 5.8 mph - N/A   Mostly Cloudy
8:45 AM 60.8 °F 48.2 °F 63% 29.79 in 10.0 mi SSW 4.6 mph - N/A   Scattered Clouds
10:45 AM 66.2 °F 37.4 °F 35% 29.78 in 10.0 mi WSW 11.5 mph 17.3 mph N/A   Clear
11:50 AM 68.0 °F 33.8 °F 28% 29.75 in 10.0 mi West 16.1 mph 21.9 mph N/A   Clear
12:45 PM 68.0 °F 33.8 °F 28% 29.74 in 10.0 mi West 16.1 mph 26.5 mph N/A   Clear
1:45 PM 69.8 °F 32.0 °F 25% 29.73 in 10.0 mi West 11.5 mph 21.9 mph N/A   Clear
2:45 PM 68.0 °F 28.4 °F 23% 29.73 in 10.0 mi West 10.4 mph 20.7 mph N/A   Clear
3:45 PM 66.2 °F 26.6 °F 23% 29.74 in 10.0 mi West 12.7 mph 24.2 mph N/A   Clear
4:45 PM 64.4 °F 24.8 °F 22% 29.76 in 10.0 mi WSW 5.8 mph 17.3 mph N/A   Clear
5:45 PM 62.6 °F 26.6 °F 26% 29.79 in 10.0 mi WSW 12.7 mph 20.7 mph N/A   Clear
6:45 PM 60.8 °F 28.4 °F 29% 29.82 in 10.0 mi West 8.1 mph - N/A   Clear
7:55 PM 57.2 °F 26.6 °F 31% 29.86 in 10.0 mi West 15.0 mph 19.6 mph N/A   Clear
8:45 PM 57.2 °F 26.6 °F 31% 29.87 in 10.0 mi West 18.4 mph 25.3 mph N/A   Clear
10:03 PM 53.6 °F 26.6 °F 35% 29.90 in 10.0 mi West 19.6 mph 29.9 mph N/A   Clear
10:24 PM 53.6 °F 28.4 °F 38% 29.92 in 10.0 mi West 16.1 mph 24.2 mph N/A   Clear
10:42 PM 51.8 °F 28.4 °F 41% 29.92 in 10.0 mi West 20.7 mph 27.6 mph N/A   Clear
11:03 PM 51.8 °F 28.4 °F 41% 29.91 in 10.0 mi West 18.4 mph 21.9 mph N/A   Clear
11:24 PM 51.8 °F 28.4 °F 41% 29.92 in 10.0 mi West 12.7 mph - N/A   Clear
11:45 PM 51.8 °F 28.4 °F 41% 29.93 in 10.0 mi WSW 5.8 mph - N/A   Clear